Kansas City International, MO

11:39 PM CST on December 12, 2017 (GMT -0600)
Kansas City International

Weather History for KMCI - April, 2014

Change the Weather History Date:

Tuesday, April 1, 2014

  Actual Average Record
Temperature  
Mean Temperature 40 °F 50 °F  
Max Temperature 52 °F 61 °F 91 °F (1940)
Min Temperature 27 °F 39 °F 22 °F (1899)
Degree Days  
Heating Degree Days 25 15  
Month to date heating degree days 25 15  
Since 1 July heating degree days 5356 4706  
Cooling Degree Days 0 0  
Month to date cooling degree days 0 0  
Year to date cooling degree days 0 3  
Moisture  
Dew Point 22 °F    
Average Humidity 52    
Maximum Humidity 69    
Minimum Humidity 35    
Precipitation  
Precipitation 0.00 in 0.10 in 2.66 in (1967)
Month to date precipitation 0.00 0.10  
Year to date precipitation 3.36 5.00  
Snow  
Snow 0.00 in 0.10 in 4.60 in (1970)
Month to date snowfall 0.0 0.1  
Since 1 July snowfall 26.0 18.3  
Snow Depth 0.00 in    
Sea Level Pressure  
Sea Level Pressure 30.04 in    
Wind  
Wind Speed 9 mph (NNE)    
Max Wind Speed 21 mph    
Max Gust Speed 30 mph    
Visibility 10 miles    
Events      
T = Trace of Precipitation, MM = Missing Value Source: NWS Daily Summary

Daily Weather History Graph

Daily Weather History Graph

Search for Another Location

Airport or City:

Trip Planner

Search our weather history database for the weather conditions in past years. The results will help you decide how hot, cold, wet, or windy it might be!

Date:

Astronomy

Apr. 01, 2014 Rise Set
Actual Time 7:03 AM CDT 7:42 PM CDT
Civil Twilight 6:36 AM CDT 8:09 PM CDT
Nautical Twilight 6:04 AM CDT 8:41 PM CDT
Astronomical Twilight 5:31 AM CDT 9:14 PM CDT
Moon 8:07 AM CDT (4/1) 10:05 PM CDT (4/1)
Length of Visible Light 13h 33m
Length of Day
12h 39m
Waxing Crescent, 5% of the Moon is Illuminated
Apr 1
Waxing Crescent
Apr 7
First Quarter
Apr 15
Full
Apr 22
Last Quarter
Apr 29
New

Hourly Weather History & Observations

Time (CDT) Temp. Windchill Dew Point Humidity Pressure Visibility Wind Dir Wind Speed Gust Speed Precip Events Conditions
12:53 AM 34.0 °F 23.8 °F 17.1 °F 50% 30.00 in 10.0 mi WNW 16.1 mph 31.1 mph N/A   Clear
1:53 AM 33.1 °F 22.6 °F 18.0 °F 54% 30.00 in 10.0 mi WNW 16.1 mph 25.3 mph N/A   Clear
2:53 AM 32.0 °F 21.6 °F 17.1 °F 54% 30.02 in 10.0 mi WNW 15.0 mph 21.9 mph N/A   Clear
3:53 AM 30.9 °F 20.7 °F 17.1 °F 57% 30.03 in 10.0 mi WNW 13.8 mph - N/A   Clear
4:53 AM 28.9 °F 21.9 °F 17.1 °F 61% 30.06 in 10.0 mi WNW 6.9 mph - N/A   Clear
5:53 AM 28.0 °F 19.3 °F 17.1 °F 63% 30.05 in 10.0 mi NW 9.2 mph - N/A   Clear
6:53 AM 28.0 °F 21.7 °F 18.0 °F 66% 30.06 in 10.0 mi NW 5.8 mph - N/A   Partly Cloudy
7:53 AM 28.9 °F 23.9 °F 19.0 °F 67% 30.08 in 10.0 mi NW 4.6 mph - N/A   Scattered Clouds
8:53 AM 32.0 °F 27.5 °F 19.0 °F 59% 30.11 in 10.0 mi NNW 4.6 mph - N/A   Mostly Cloudy
9:53 AM 35.1 °F 31.0 °F 19.9 °F 54% 30.12 in 10.0 mi Variable 4.6 mph - N/A   Mostly Cloudy
10:53 AM 41.0 °F 39.0 °F 21.0 °F 45% 30.13 in 10.0 mi Variable 3.5 mph - N/A   Overcast
11:53 AM 44.1 °F 40.8 °F 21.9 °F 42% 30.12 in 10.0 mi Variable 5.8 mph - N/A   Overcast
12:53 PM 46.0 °F 43.9 °F 23.0 °F 40% 30.10 in 10.0 mi NNE 4.6 mph - N/A   Overcast
1:53 PM 46.9 °F - 24.1 °F 41% 30.07 in 10.0 mi ESE 5.8 mph - N/A   Overcast
2:53 PM 48.9 °F - 24.1 °F 38% 30.06 in 10.0 mi Variable 5.8 mph - N/A   Overcast
3:53 PM 51.1 °F - 25.0 °F 36% 30.04 in 10.0 mi Variable 5.8 mph - N/A   Overcast
4:53 PM 51.1 °F - 26.1 °F 38% 30.01 in 10.0 mi ENE 8.1 mph - N/A   Overcast
5:53 PM 52.0 °F - 27.0 °F 38% 30.01 in 10.0 mi ENE 10.4 mph - N/A   Overcast
6:53 PM 52.0 °F - 26.1 °F 37% 30.00 in 10.0 mi East 11.5 mph - N/A   Overcast
7:53 PM 51.1 °F - 26.1 °F 38% 30.00 in 10.0 mi ENE 11.5 mph - N/A   Overcast
8:53 PM 50.0 °F - 26.1 °F 39% 30.00 in 10.0 mi ENE 9.2 mph - N/A   Overcast
9:53 PM 50.0 °F - 27.0 °F 41% 30.01 in 10.0 mi NE 10.4 mph - N/A   Overcast
10:53 PM 50.0 °F - 27.0 °F 41% 30.01 in 10.0 mi ENE 11.5 mph - N/A   Overcast
11:33 PM 48.9 °F - 27.0 °F 43% 29.98 in 10.0 mi ENE 13.8 mph - N/A   Overcast
11:53 PM 48.9 °F - 27.0 °F 43% 29.98 in 10.0 mi ENE 11.5 mph - N/A   Overcast